Time,TemperatureF,DewpointF,PressureIn,WindDirection,WindDirectionDegrees,WindSpeedMPH,WindSpeedGustMPH,Humidity,HourlyPrecipIn,Conditions,Clouds,dailyrainin,SoftwareType,DateUTC
2013-06-17 09:09:00,77.0,63.9,-100.00,North,0,0.0,8.0,64,0.00,,,0.00,meteohub,2013-06-17 06:09:00,
2013-06-17 09:11:00,77.4,62.8,-100.00,North,0,1.0,-999.0,61,-99.99,,,0.00,meteohub,2013-06-17 06:11:00,
2013-06-17 09:12:00,77.4,62.8,-100.00,North,0,0.0,-999.0,61,-99.99,,,0.00,meteohub,2013-06-17 06:12:00,
2013-06-17 09:13:00,77.5,63.5,-100.00,NE,45,2.0,-999.0,62,-99.99,,,0.00,meteohub,2013-06-17 06:13:00,
2013-06-17 09:14:00,77.7,61.7,-100.00,North,0,2.0,-999.0,58,-99.99,,,0.00,meteohub,2013-06-17 06:14:00,
2013-06-17 09:19:00,78.3,62.2,-100.00,SW,225,1.0,3.0,58,0.00,,,0.08,meteohub,2013-06-17 06:19:00,
2013-06-17 09:25:00,79.0,63.0,-100.00,SSW,202,3.0,4.0,58,0.00,,,0.08,meteohub,2013-06-17 06:25:00,
2013-06-17 09:30:00,79.9,62.8,-100.00,North,0,2.0,4.0,56,0.00,,,0.08,meteohub,2013-06-17 06:30:00,
2013-06-17 09:35:00,79.9,59.5,-100.00,SW,225,6.0,6.0,50,0.00,,,0.08,meteohub,2013-06-17 06:35:00,
2013-06-17 09:40:00,80.4,60.6,-100.00,South,180,3.0,4.0,51,0.00,,,0.08,meteohub,2013-06-17 06:40:00,
2013-06-17 09:45:00,81.0,58.8,-100.00,NE,45,1.0,6.0,47,0.00,,,0.08,meteohub,2013-06-17 06:45:00,
2013-06-17 09:50:00,81.3,57.9,-100.00,North,0,3.0,6.0,45,0.00,,,0.08,meteohub,2013-06-17 06:50:00,
2013-06-17 09:55:00,81.5,58.1,-100.00,North,0,1.0,3.0,45,0.00,,,0.08,meteohub,2013-06-17 06:55:00,
2013-06-17 10:00:00,81.9,57.2,-100.00,West,270,0.0,3.0,43,0.00,,,0.08,meteohub,2013-06-17 07:00:00,
2013-06-17 10:05:00,82.4,59.0,-100.00,SW,225,0.0,3.0,45,0.00,,,0.08,meteohub,2013-06-17 07:05:00,
2013-06-17 10:10:00,82.9,58.8,-100.00,West,270,0.0,5.0,44,0.00,,,0.08,meteohub,2013-06-17 07:10:00,
2013-06-17 10:15:00,82.9,57.6,-100.00,South,180,3.0,5.0,42,0.00,,,0.08,meteohub,2013-06-17 07:15:00,
2013-06-17 10:20:00,83.5,57.4,-100.00,South,180,2.0,5.0,41,0.00,,,0.08,meteohub,2013-06-17 07:20:00,
2013-06-17 10:25:00,83.7,56.8,-100.00,NE,45,4.0,5.0,40,0.00,,,0.08,meteohub,2013-06-17 07:25:00,
2013-06-17 10:31:00,83.7,56.8,-100.00,NE,45,6.0,6.0,40,0.00,,,0.08,meteohub,2013-06-17 07:31:00,
2013-06-17 10:36:00,83.5,56.7,-100.00,North,0,1.0,6.0,40,0.00,,,0.08,meteohub,2013-06-17 07:36:00,
2013-06-17 10:41:00,83.5,56.7,-100.00,NE,45,1.0,6.0,40,0.00,,,0.08,meteohub,2013-06-17 07:41:00,
2013-06-17 10:46:00,83.7,57.4,-100.00,South,180,3.0,6.0,41,0.00,,,0.08,meteohub,2013-06-17 07:46:00,
2013-06-17 10:51:00,83.3,56.5,-100.00,NE,45,3.0,4.0,40,0.00,,,0.08,meteohub,2013-06-17 07:51:00,
2013-06-17 10:56:00,83.1,56.3,-100.00,NE,45,4.0,5.0,40,0.00,,,0.08,meteohub,2013-06-17 07:56:00,
2013-06-17 11:01:00,82.8,55.9,-100.00,NE,45,1.0,5.0,40,0.00,,,0.08,meteohub,2013-06-17 08:01:00,
2013-06-17 11:06:00,82.6,56.5,-100.00,SW,225,3.0,5.0,41,0.00,,,0.08,meteohub,2013-06-17 08:06:00,
2013-06-17 11:11:00,82.2,56.8,-100.00,NE,45,4.0,6.0,42,0.00,,,0.08,meteohub,2013-06-17 08:11:00,
2013-06-17 11:16:00,81.7,56.3,-100.00,North,0,0.0,6.0,42,0.00,,,0.08,meteohub,2013-06-17 08:16:00,
2013-06-17 11:21:00,81.1,56.5,-100.00,NE,45,3.0,6.0,43,0.00,,,0.08,meteohub,2013-06-17 08:21:00,
2013-06-17 11:26:00,81.0,57.0,-100.00,SW,225,2.0,4.0,44,0.00,,,0.08,meteohub,2013-06-17 08:26:00,
2013-06-17 11:32:00,80.6,56.7,-100.00,North,0,2.0,4.0,44,0.00,,,0.08,meteohub,2013-06-17 08:32:00,
2013-06-17 11:37:00,80.2,57.0,-100.00,East,90,0.0,5.0,45,0.00,,,0.08,meteohub,2013-06-17 08:37:00,
2013-06-17 11:42:00,79.9,56.7,-100.00,SW,225,0.0,5.0,45,0.00,,,0.08,meteohub,2013-06-17 08:42:00,
2013-06-17 11:47:00,79.9,57.9,-100.00,NW,315,0.0,5.0,47,0.00,,,0.08,meteohub,2013-06-17 08:47:00,
2013-06-17 11:52:00,79.9,57.9,-100.00,NE,45,3.0,5.0,47,0.00,,,0.08,meteohub,2013-06-17 08:52:00,
2013-06-17 11:57:00,79.7,57.7,-100.00,NE,45,2.0,5.0,47,0.00,,,0.08,meteohub,2013-06-17 08:57:00,
2013-06-17 12:02:00,79.7,57.7,-100.00,North,0,3.0,5.0,47,0.00,,,0.08,meteohub,2013-06-17 09:02:00,
2013-06-17 12:07:00,79.5,56.8,-100.00,NW,315,2.0,6.0,46,0.00,,,0.08,meteohub,2013-06-17 09:07:00,
2013-06-17 12:12:00,79.5,56.8,-100.00,North,0,1.0,6.0,46,0.00,,,0.08,meteohub,2013-06-17 09:12:00,
2013-06-17 12:17:00,79.5,56.8,-100.00,North,0,3.0,6.0,46,0.00,,,0.08,meteohub,2013-06-17 09:17:00,
2013-06-17 12:23:00,79.7,57.7,-100.00,North,0,1.0,6.0,47,0.00,,,0.08,meteohub,2013-06-17 09:23:00,
2013-06-17 12:28:00,79.5,57.6,-100.00,NE,45,2.0,6.0,47,0.00,,,0.08,meteohub,2013-06-17 09:28:00,
2013-06-17 12:33:00,79.5,57.6,-100.00,SW,225,2.0,6.0,47,0.00,,,0.08,meteohub,2013-06-17 09:33:00,
2013-06-17 12:38:00,79.2,55.9,-100.00,NE,45,2.0,8.0,45,0.00,,,0.08,meteohub,2013-06-17 09:38:00,
2013-06-17 12:43:00,79.2,56.7,-100.00,NE,45,3.0,8.0,46,0.00,,,0.08,meteohub,2013-06-17 09:43:00,
2013-06-17 12:48:00,79.3,57.4,-100.00,North,0,3.0,8.0,47,0.00,,,0.08,meteohub,2013-06-17 09:48:00,
2013-06-17 12:53:00,79.3,57.4,-100.00,North,0,1.0,7.0,47,0.00,,,0.00,meteohub,2013-06-17 09:53:00,
2013-06-17 12:58:00,79.5,57.6,-100.00,NNW,338,0.0,6.0,47,0.00,,,0.00,meteohub,2013-06-17 09:58:00,
2013-06-17 13:03:00,79.5,56.3,-100.00,East,90,4.0,5.0,45,0.00,,,0.00,meteohub,2013-06-17 10:03:00,
2013-06-17 13:08:00,79.3,56.1,-100.00,North,0,2.0,5.0,45,0.00,,,0.00,meteohub,2013-06-17 10:08:00,
2013-06-17 13:13:00,79.3,56.8,-100.00,North,0,2.0,5.0,46,0.00,,,0.00,meteohub,2013-06-17 10:13:00,
2013-06-17 13:19:00,79.2,56.7,-100.00,WNW,292,0.0,5.0,46,0.00,,,0.00,meteohub,2013-06-17 10:19:00,
2013-06-17 13:24:00,79.2,56.7,-100.00,NE,45,7.0,7.0,46,0.00,,,0.00,meteohub,2013-06-17 10:24:00,
2013-06-17 13:29:00,79.2,57.7,-100.00,NE,45,1.0,8.0,48,0.00,,,0.00,meteohub,2013-06-17 10:29:00,
2013-06-17 13:34:00,79.2,56.7,-100.00,NE,45,1.0,8.0,46,0.00,,,0.00,meteohub,2013-06-17 10:34:00,
2013-06-17 13:39:00,79.3,57.4,-100.00,NE,45,2.0,8.0,47,0.00,,,0.00,meteohub,2013-06-17 10:39:00,
2013-06-17 13:44:00,79.2,56.7,-100.00,NE,45,3.0,6.0,46,0.00,,,0.00,meteohub,2013-06-17 10:44:00,
2013-06-17 13:49:00,79.3,57.4,-100.00,North,0,2.0,9.0,47,0.00,,,0.00,meteohub,2013-06-17 10:49:00,
2013-06-17 13:54:00,79.3,56.8,-100.00,North,0,6.0,9.0,46,0.00,,,0.00,meteohub,2013-06-17 10:54:00,
2013-06-17 13:59:00,79.3,57.4,-100.00,NNE,22,0.0,8.0,47,0.00,,,0.00,meteohub,2013-06-17 10:59:00,
2013-06-17 14:05:00,79.3,57.4,-100.00,West,270,2.0,6.0,47,0.00,,,0.00,meteohub,2013-06-17 11:05:00,
2013-06-17 14:10:00,79.3,57.4,-100.00,NE,45,1.0,4.0,47,0.00,,,0.00,meteohub,2013-06-17 11:10:00,
2013-06-17 14:15:00,79.5,57.6,-100.00,South,180,1.0,4.0,47,0.00,,,0.00,meteohub,2013-06-17 11:15:00,
2013-06-17 14:20:00,79.5,56.8,-100.00,NNW,338,3.0,4.0,46,0.00,,,0.00,meteohub,2013-06-17 11:20:00,
2013-06-17 14:25:00,79.5,56.3,-100.00,North,0,4.0,7.0,45,0.00,,,0.00,meteohub,2013-06-17 11:25:00,
2013-06-17 14:30:00,79.3,56.8,-100.00,NW,315,3.0,7.0,46,0.00,,,0.00,meteohub,2013-06-17 11:30:00,
2013-06-17 14:35:00,79.5,56.8,-100.00,SE,135,1.0,9.0,46,0.00,,,0.00,meteohub,2013-06-17 11:35:00,
2013-06-17 14:40:00,80.1,58.1,-100.00,North,0,2.0,9.0,47,0.00,,,0.00,meteohub,2013-06-17 11:40:00,
2013-06-17 14:45:00,80.1,56.8,-100.00,NE,45,7.0,9.0,45,0.00,,,0.00,meteohub,2013-06-17 11:45:00,
2013-06-17 14:50:00,80.4,57.7,-100.00,WSW,248,1.0,7.0,46,0.00,,,0.00,meteohub,2013-06-17 11:50:00,
2013-06-17 14:56:00,80.6,56.7,-100.00,North,0,2.0,7.0,44,0.00,,,0.00,meteohub,2013-06-17 11:56:00,
2013-06-17 15:01:00,81.1,57.2,-100.00,West,270,2.0,7.0,44,0.00,,,0.00,meteohub,2013-06-17 12:01:00,
2013-06-17 15:06:00,81.3,56.7,-100.00,NE,45,4.0,7.0,43,0.00,,,0.00,meteohub,2013-06-17 12:06:00,
2013-06-17 15:11:00,81.3,56.7,-100.00,NE,45,2.0,8.0,43,0.00,,,0.00,meteohub,2013-06-17 12:11:00,
2013-06-17 15:16:00,81.5,56.1,-100.00,NE,45,6.0,8.0,42,0.00,,,0.00,meteohub,2013-06-17 12:16:00,
2013-06-17 15:21:00,82.9,57.6,-100.00,West,270,2.0,8.0,42,0.00,,,0.00,meteohub,2013-06-17 12:21:00,
2013-06-17 15:26:00,83.7,57.4,-100.00,NNE,22,2.0,6.0,41,0.00,,,0.00,meteohub,2013-06-17 12:26:00,
2013-06-17 15:31:00,84.2,56.5,-100.00,NE,45,1.0,8.0,39,0.00,,,0.00,meteohub,2013-06-17 12:31:00,
2013-06-17 15:36:00,85.1,57.4,-100.00,NE,45,2.0,8.0,39,0.00,,,0.00,meteohub,2013-06-17 12:36:00,
2013-06-17 15:42:00,85.5,56.3,-100.00,NE,45,0.0,8.0,37,0.00,,,0.00,meteohub,2013-06-17 12:42:00,
2013-06-17 15:47:00,86.2,56.1,-100.00,SW,225,4.0,7.0,36,0.00,,,0.00,meteohub,2013-06-17 12:47:00,
2013-06-17 15:52:00,86.4,54.7,-100.00,NE,45,2.0,7.0,34,0.00,,,0.00,meteohub,2013-06-17 12:52:00,
2013-06-17 15:57:00,86.5,54.9,-100.00,North,0,3.0,7.0,34,0.00,,,0.00,meteohub,2013-06-17 12:57:00,
2013-06-17 16:02:00,86.4,54.7,-100.00,NNE,22,1.0,6.0,34,0.00,,,0.00,meteohub,2013-06-17 13:02:00,
2013-06-17 16:07:00,87.6,55.0,-100.00,SW,225,3.0,6.0,33,0.00,,,0.00,meteohub,2013-06-17 13:07:00,
2013-06-17 16:12:00,87.6,55.0,-100.00,South,180,1.0,6.0,33,0.00,,,0.00,meteohub,2013-06-17 13:12:00,
2013-06-17 16:17:00,88.0,53.6,-100.00,South,180,1.0,5.0,31,0.00,,,0.00,meteohub,2013-06-17 13:17:00,
2013-06-17 16:22:00,87.1,52.7,-100.00,North,0,2.0,5.0,31,0.00,,,0.00,meteohub,2013-06-17 13:22:00,
2013-06-17 16:28:00,86.4,53.1,-100.00,North,0,4.0,7.0,32,0.00,,,0.00,meteohub,2013-06-17 13:28:00,
2013-06-17 16:33:00,86.0,53.6,-100.00,North,0,0.0,7.0,33,0.00,,,0.00,meteohub,2013-06-17 13:33:00,
2013-06-17 16:38:00,87.1,53.6,-100.00,North,0,3.0,7.0,32,0.00,,,0.00,meteohub,2013-06-17 13:38:00,
2013-06-17 16:43:00,86.7,53.4,-100.00,NNW,338,1.0,6.0,32,0.00,,,0.00,meteohub,2013-06-17 13:43:00,
2013-06-17 16:48:00,86.7,53.4,-100.00,NE,45,2.0,6.0,32,0.00,,,0.00,meteohub,2013-06-17 13:48:00,
2013-06-17 16:53:00,86.5,53.2,-100.00,North,0,4.0,6.0,32,0.00,,,0.00,meteohub,2013-06-17 13:53:00,
2013-06-17 16:58:00,86.2,52.9,-100.00,NE,45,3.0,6.0,32,0.00,,,0.00,meteohub,2013-06-17 13:58:00,
2013-06-17 17:03:00,86.2,52.9,-100.00,North,0,2.0,6.0,32,0.00,,,0.00,meteohub,2013-06-17 14:03:00,
2013-06-17 17:08:00,86.7,53.4,-100.00,North,0,2.0,6.0,32,0.00,,,0.00,meteohub,2013-06-17 14:08:00,
2013-06-17 17:14:00,86.2,53.8,-100.00,North,0,1.0,6.0,33,0.00,,,0.00,meteohub,2013-06-17 14:14:00,
2013-06-17 17:19:00,86.7,53.4,-100.00,NE,45,7.0,7.0,32,0.00,,,0.00,meteohub,2013-06-17 14:19:00,
2013-06-17 17:24:00,86.0,53.6,-100.00,South,180,0.0,6.0,33,0.00,,,0.00,meteohub,2013-06-17 14:24:00,
2013-06-17 17:29:00,86.0,52.7,-100.00,North,0,1.0,7.0,32,0.00,,,0.00,meteohub,2013-06-17 14:29:00,
2013-06-17 17:34:00,85.8,53.4,-100.00,NW,315,2.0,7.0,33,0.00,,,0.00,meteohub,2013-06-17 14:34:00,
2013-06-17 17:39:00,84.7,52.5,-100.00,NE,45,5.0,6.0,33,0.00,,,0.00,meteohub,2013-06-17 14:39:00,
2013-06-17 17:44:00,84.0,53.4,-100.00,NE,45,4.0,6.0,35,0.00,,,0.00,meteohub,2013-06-17 14:44:00,
2013-06-17 17:49:00,83.3,53.6,-100.00,NNE,22,0.0,8.0,36,0.00,,,0.00,meteohub,2013-06-17 14:49:00,
2013-06-17 17:54:00,82.9,54.0,-100.00,East,90,2.0,8.0,37,0.00,,,0.00,meteohub,2013-06-17 14:54:00,
2013-06-17 17:59:00,82.9,54.7,-100.00,South,180,0.0,5.0,38,0.00,,,0.00,meteohub,2013-06-17 14:59:00,
2013-06-17 18:04:00,82.6,54.3,-100.00,East,90,3.0,5.0,38,0.00,,,0.00,meteohub,2013-06-17 15:04:00,
2013-06-17 18:09:00,82.4,55.0,-100.00,NW,315,2.0,4.0,39,0.00,,,0.00,meteohub,2013-06-17 15:09:00,
2013-06-17 18:15:00,82.0,54.7,-100.00,North,0,0.0,5.0,39,0.00,,,0.00,meteohub,2013-06-17 15:15:00,
2013-06-17 18:20:00,81.7,55.0,-100.00,NE,45,2.0,9.0,40,0.00,,,0.00,meteohub,2013-06-17 15:20:00,
2013-06-17 18:25:00,81.3,54.7,-100.00,East,90,3.0,9.0,40,0.00,,,0.00,meteohub,2013-06-17 15:25:00,
2013-06-17 18:30:00,80.8,54.1,-100.00,NE,45,4.0,7.0,40,0.00,,,0.00,meteohub,2013-06-17 15:30:00,
2013-06-17 18:35:00,80.6,54.7,-100.00,North,0,2.0,7.0,41,0.00,,,0.00,meteohub,2013-06-17 15:35:00,
2013-06-17 18:40:00,80.6,54.7,-100.00,NE,45,1.0,7.0,41,0.00,,,0.00,meteohub,2013-06-17 15:40:00,
2013-06-17 18:45:00,80.6,54.7,-100.00,NE,45,2.0,6.0,41,0.00,,,0.00,meteohub,2013-06-17 15:45:00,
2013-06-17 18:50:00,80.4,54.5,-100.00,North,0,0.0,6.0,41,0.00,,,0.00,meteohub,2013-06-17 15:50:00,
2013-06-17 18:55:00,80.6,54.7,-100.00,NE,45,2.0,6.0,41,0.00,,,0.00,meteohub,2013-06-17 15:55:00,
2013-06-17 19:00:00,80.6,54.7,-100.00,SW,225,0.0,6.0,41,0.00,,,0.00,meteohub,2013-06-17 16:00:00,
2013-06-17 19:05:00,80.2,54.3,-100.00,North,0,1.0,4.0,41,0.00,,,0.00,meteohub,2013-06-17 16:05:00,
2013-06-17 19:10:00,80.2,55.0,-100.00,North,0,3.0,5.0,42,0.00,,,0.00,meteohub,2013-06-17 16:10:00,
2013-06-17 19:15:00,80.1,54.9,-100.00,South,180,0.0,5.0,42,0.00,,,0.00,meteohub,2013-06-17 16:15:00,
2013-06-17 19:20:00,80.1,54.9,-100.00,West,270,0.0,5.0,42,0.00,,,0.00,meteohub,2013-06-17 16:20:00,
2013-06-17 19:26:00,79.9,54.7,-100.00,NE,45,6.0,6.0,42,0.00,,,0.00,meteohub,2013-06-17 16:26:00,
2013-06-17 19:31:00,79.5,55.0,-100.00,North,0,0.0,6.0,43,0.00,,,0.00,meteohub,2013-06-17 16:31:00,
2013-06-17 19:36:00,79.3,54.9,-100.00,North,0,3.0,6.0,43,0.00,,,0.00,meteohub,2013-06-17 16:36:00,
2013-06-17 19:41:00,79.2,54.7,-100.00,NNW,338,0.0,6.0,43,0.00,,,0.00,meteohub,2013-06-17 16:41:00,
2013-06-17 19:46:00,79.0,54.5,-100.00,North,0,0.0,6.0,43,0.00,,,0.00,meteohub,2013-06-17 16:46:00,
2013-06-17 19:51:00,79.0,55.2,-100.00,NE,45,5.0,5.0,44,0.00,,,0.00,meteohub,2013-06-17 16:51:00,
2013-06-17 19:56:00,78.6,54.9,-100.00,North,0,1.0,5.0,44,0.00,,,0.00,meteohub,2013-06-17 16:56:00,
2013-06-17 20:01:00,78.4,54.7,-100.00,NE,45,3.0,5.0,44,0.00,,,0.00,meteohub,2013-06-17 17:01:00,
2013-06-17 20:06:00,78.1,55.0,-100.00,NE,45,7.0,7.0,45,0.00,,,0.00,meteohub,2013-06-17 17:06:00,
2013-06-17 20:11:00,78.1,55.0,-100.00,NE,45,1.0,7.0,45,0.00,,,0.00,meteohub,2013-06-17 17:11:00,
2013-06-17 20:16:00,77.9,54.9,-100.00,North,0,1.0,7.0,45,0.00,,,0.00,meteohub,2013-06-17 17:16:00,
2013-06-17 20:21:00,77.7,54.7,-100.00,NE,45,3.0,7.0,45,0.00,,,0.00,meteohub,2013-06-17 17:21:00,
2013-06-17 20:27:00,77.5,55.0,-100.00,NE,45,1.0,7.0,46,0.00,,,0.00,meteohub,2013-06-17 17:27:00,
2013-06-17 20:32:00,77.4,55.0,-100.00,NNW,338,2.0,5.0,46,0.00,,,0.00,meteohub,2013-06-17 17:32:00,
2013-06-17 20:37:00,77.4,55.0,-100.00,North,0,1.0,5.0,46,0.00,,,0.00,meteohub,2013-06-17 17:37:00,
2013-06-17 20:42:00,77.2,54.9,-100.00,NNE,22,0.0,5.0,46,0.00,,,0.00,meteohub,2013-06-17 17:42:00,
2013-06-17 20:47:00,77.0,54.7,-100.00,NNE,22,2.0,5.0,46,0.00,,,0.00,meteohub,2013-06-17 17:47:00,
2013-06-17 20:52:00,77.0,55.2,-100.00,NE,45,2.0,5.0,47,0.00,,,0.00,meteohub,2013-06-17 17:52:00,
2013-06-17 20:57:00,76.6,54.9,-100.00,NE,45,1.0,3.0,47,0.00,,,0.00,meteohub,2013-06-17 17:57:00,
2013-06-17 21:02:00,76.5,55.4,-100.00,North,0,0.0,3.0,48,0.00,,,0.00,meteohub,2013-06-17 18:02:00,
2013-06-17 21:07:00,76.5,55.4,-100.00,North,0,1.0,4.0,48,0.00,,,0.00,meteohub,2013-06-17 18:07:00,
2013-06-17 21:12:00,76.5,55.4,-100.00,NE,45,1.0,4.0,48,0.00,,,0.00,meteohub,2013-06-17 18:12:00,
2013-06-17 21:17:00,76.5,55.4,-100.00,NE,45,2.0,4.0,48,0.00,,,0.00,meteohub,2013-06-17 18:17:00,
2013-06-17 21:22:00,76.3,55.8,-100.00,NE,45,2.0,4.0,49,0.00,,,0.00,meteohub,2013-06-17 18:22:00,
2013-06-17 21:27:00,76.1,55.6,-100.00,North,0,0.0,3.0,49,0.00,,,0.00,meteohub,2013-06-17 18:27:00,
2013-06-17 21:33:00,76.1,55.6,-100.00,NE,45,0.0,2.0,49,0.00,,,0.00,meteohub,2013-06-17 18:33:00,
2013-06-17 21:38:00,76.1,55.6,-100.00,NE,45,0.0,2.0,49,0.00,,,0.00,meteohub,2013-06-17 18:38:00,
2013-06-17 21:43:00,75.9,56.5,-100.00,South,180,0.0,2.0,51,0.00,,,0.00,meteohub,2013-06-17 18:43:00,
2013-06-17 21:48:00,75.7,56.8,-100.00,SSW,202,1.0,1.0,52,0.00,,,0.00,meteohub,2013-06-17 18:48:00,
2013-06-17 21:53:00,75.6,57.2,-100.00,SW,225,0.0,1.0,53,0.00,,,0.00,meteohub,2013-06-17 18:53:00,
2013-06-17 21:58:00,75.6,56.7,-100.00,NE,45,0.0,1.0,52,0.00,,,0.00,meteohub,2013-06-17 18:58:00,
2013-06-17 22:03:00,75.4,57.6,-100.00,North,0,0.0,2.0,54,0.00,,,0.00,meteohub,2013-06-17 19:03:00,
2013-06-17 22:08:00,75.6,57.7,-100.00,North,0,0.0,2.0,54,0.00,,,0.00,meteohub,2013-06-17 19:08:00,
2013-06-17 22:13:00,75.4,58.1,-100.00,SW,225,0.0,2.0,55,0.00,,,0.00,meteohub,2013-06-17 19:13:00,
2013-06-17 22:18:00,75.2,57.9,-100.00,SW,225,1.0,2.0,55,0.00,,,0.00,meteohub,2013-06-17 19:18:00,
2013-06-17 22:23:00,75.0,58.8,-100.00,South,180,0.0,2.0,57,0.00,,,0.00,meteohub,2013-06-17 19:23:00,
2013-06-17 22:29:00,75.0,58.8,-100.00,SW,225,0.0,2.0,57,0.00,,,0.00,meteohub,2013-06-17 19:29:00,
2013-06-17 22:34:00,74.8,58.1,-100.00,WSW,248,0.0,2.0,56,0.00,,,0.00,meteohub,2013-06-17 19:34:00,
2013-06-17 22:39:00,74.8,58.6,-100.00,North,0,0.0,2.0,57,0.00,,,0.00,meteohub,2013-06-17 19:39:00,
2013-06-17 22:44:00,74.8,59.0,-100.00,NW,315,0.0,1.0,58,0.00,,,0.00,meteohub,2013-06-17 19:44:00,
2013-06-17 22:49:00,74.8,59.0,-100.00,NW,315,0.0,0.0,58,0.00,,,0.00,meteohub,2013-06-17 19:49:00,
2013-06-17 22:54:00,74.8,59.0,-100.00,NW,315,0.0,0.0,58,0.00,,,0.00,meteohub,2013-06-17 19:54:00,
2013-06-17 22:59:00,74.8,59.0,-100.00,NW,315,0.0,0.0,58,0.00,,,0.00,meteohub,2013-06-17 19:59:00,
2013-06-17 23:04:00,74.7,58.8,-100.00,NNW,338,0.0,0.0,58,0.00,,,0.00,meteohub,2013-06-17 20:04:00,
2013-06-17 23:09:00,74.7,58.8,-100.00,NNW,338,0.0,0.0,58,0.00,,,0.00,meteohub,2013-06-17 20:09:00,
2013-06-17 23:14:00,74.7,59.4,-100.00,North,0,0.0,0.0,59,0.00,,,0.00,meteohub,2013-06-17 20:14:00,
2013-06-17 23:19:00,74.5,59.2,-100.00,North,0,0.0,0.0,59,0.00,,,0.00,meteohub,2013-06-17 20:19:00,
2013-06-17 23:24:00,74.1,59.4,-100.00,North,0,0.0,1.0,60,0.00,,,0.00,meteohub,2013-06-17 20:24:00,
2013-06-17 23:29:00,74.1,59.4,-100.00,North,0,0.0,1.0,60,0.00,,,0.00,meteohub,2013-06-17 20:29:00,
2013-06-17 23:35:00,74.1,59.7,-100.00,North,0,0.0,1.0,61,0.00,,,0.00,meteohub,2013-06-17 20:35:00,
2013-06-17 23:40:00,73.9,59.7,-100.00,NE,45,2.0,0.0,61,0.00,,,0.00,meteohub,2013-06-17 20:40:00,
2013-06-17 23:45:00,73.9,59.7,-100.00,NE,45,0.0,2.0,61,0.00,,,0.00,meteohub,2013-06-17 20:45:00,
2013-06-17 23:50:00,73.9,59.7,-100.00,North,0,0.0,2.0,61,0.00,,,0.00,meteohub,2013-06-17 20:50:00,
2013-06-17 23:56:00,73.9,60.1,-100.00,SW,225,0.0,0.0,62,0.00,,,0.00,meteohub,2013-06-17 20:56:00,